Hourly Weather Observations

Printer Friendly

AL    FL    LA    MS

Data Buoys:

Western Gulf of Mexico
Eastern Gulf of Mexico

Alabama

 

Issued 2021-06-23 02:10:00

064-230300-

SOUTHWEST ALABAMA

  

CITY           SKY/WX    TMP DP  RH WIND       PRES   REMARKS

MOBILE         CLOUDY    74  74 100 NW3       30.01R                  

BROOKLEY FIELD CLOUDY    76  75  97 CALM      30.01R                  

EVERGREEN      PTCLDY    76  72  87 CALM      30.00R                  


Mississippi

Issued 2021-06-23 02:10:00

082-230300-

COASTAL MISSISSIPPI

  

CITY           SKY/WX    TMP DP  RH WIND       PRES   REMARKS

BILOXI         MOCLDY    75  74  99 NE7       29.98R                  

PASCAGOULA     LGT RAIN  77  75  93 CALM      29.99R                  

GULFPORT       MOCLDY    76  73  91 N5        29.98S                  


Florida

Issued 2021-06-23 02:17:00

010-012>015-112-114-115-230300-

PANHANDLE FLORIDA

  

CITY           SKY/WX    TMP DP  RH WIND       PRES   REMARKS

PENSACOLA      CLOUDY    79  76  90 W8        29.99R                  

PENSACOLA NAS  CLOUDY    78  73  84 VRB7      29.98R                  

MILTON NAS     CLOUDY    76  73  91 S5        30.00R                  

CRESTVIEW      MOCLDY    76  74  93 S5        30.01R                  

DUKE FIELD     FAIR      75  73  93 SW3       29.99S                  

VALPARAISO     CLOUDY    77  75  92 W3        29.98F                  

MARY ESTHER    MOCLDY    79  75  87 CALM      29.98S                  

TRI COUNTY     FAIR      76  73  91 CALM      30.00                   

PANAMA CITY    MOCLDY    79  75  87 S6        29.99S                  

TYNDALL AFB    CLOUDY    78  73  83 W12       30.00R                  

APALACHICOLA   CLOUDY    78  75  90 W9        30.00R                  



STATION/POSITION SKY/WX   TEMP    WIND        PRES    WAVE   SWELL

                          AIR SEA DIR/SP/G            HT/PER HT/PER

                          (F)     (DEG/KT/KT) (MB)    (FT/S) (FT/S)

30.1N   87.6W              79     200/  4/  6   N/A

29.2N   88.2W              79 81  210/ 10/ 12 1016.0R   3/ 6   2/ 6

28.8N   86.0W              79 81  240/ 10/ 12 1016.4R   3/ 6   2/ 6

PANAMA CITY BEAC           80 81  240/ 13/ 16 1016.3R

TOWER C                    79     280/  9/ 11 1016.8R

28.5N   84.5W              81     230/  6/  6 1016.5



 


Louisiana

Issued 2021-06-23 02:10:00

230210

RWRLA 

LOUISIANA WEATHER ROUNDUP

NATIONAL WEATHER SERVICE NEW ORLEANS LA

900 PM CDT TUE JUN 22 2021



NOTE: "FAIR" INDICATES FEW OR NO CLOUDS BELOW 12,000 FEET WITH NO

      SIGNIFICANT WEATHER AND/OR OBSTRUCTIONS TO VISIBILITY.

      SKY/WX - SKY CONDITION AND SIGNIFICANT WEATHER.

      TMP - AIR TEMPERATURE.    DP   - DEWPOINT TEMPERATURE.

      RH  - RELATIVE HUMIDITY.  PRES - PRESSURE.

      HX  - HEAT INDEX.         WCI  - WIND CHILL INDEX.



*  THESE STATIONS ARE NOT NWS OR FAA STATIONS AND ARE NOT UNDER

   NWS QUALITY CONTROL.



LAZ048-061-063-065-066-069-076-077-230300-

SOUTHEAST LOUISIANA

  

CITY           SKY/WX    TMP DP  RH WIND       PRES   REMARKS

N.O. INTL ARPT MOCLDY    82  74  76 E7        29.98R                  

N.O. DWNTWN HE FAIR      81  75  82 CALM      29.99R                  

N.O. LAKEFRONT MOCLDY    82  77  84 E8        29.98R                  

RESERVE*       FAIR      77  74  88 E5        29.98R                  

SLIDELL        PTCLDY    78  75  90 CALM      29.98R                  

BATON ROUGE    PTCLDY    78  75  90 NE7       29.96R                  

BOOTHVILLE*      N/A     78  75  89 S8        30.01R                  

BELLE CHASSE*  MOCLDY    81  80  97 E6        29.97R                  

BOGALUSA*      CLOUDY    80  74  83 E3        29.99R                  

GALLIANO*      DRIZZLE   80  76  88 SE3       29.97R                  

NEW ROADS*     FAIR      77  73  90 NE7       29.96S                  

GONZALES*      FAIR      79  77  94 CALM      29.96R                  

HAMMOND*       CLEAR     73  73 100 CALM      29.98R                  

HOUMA*         MOCLDY    82  78  90 CALM      29.97R